Webb City, MO

6:40 PM CDT on September 30, 2016 (GMT -0500)
Joplin Regional

Weather History for KJLN - August, 2014

Change the Weather History Date:

Tuesday, August 26, 2014

  Actual Average Record
Temperature  
Mean Temperature 86 °F 78 °F  
Max Temperature 99 °F 90 °F 101 °F (1983)
Min Temperature 72 °F 67 °F 51 °F (1962)
Degree Days  
Heating Degree Days 0 0  
Month to date heating degree days 0 0  
Since 1 June heating degree days 3 5  
Since 1 July heating degree days 1 0  
Cooling Degree Days 21 13  
Month to date cooling degree days 395 395  
Year to date cooling degree days 1241 1366  
Since 1 June cooling degree days 1028 1186  
Growing Degree Days 36 (Base 50)    
Moisture  
Dew Point 67 °F    
Average Humidity 57    
Maximum Humidity 82    
Minimum Humidity 31    
Precipitation  
Precipitation 0.03 in 0.13 in 3.16 in (1950)
Month to date precipitation 1.52 2.73  
Year to date precipitation 15.44 30.35  
Sea Level Pressure  
Sea Level Pressure 30.03 in    
Wind  
Wind Speed 4 mph (ESE)    
Max Wind Speed 20 mph    
Max Gust Speed 27 mph    
Visibility 10 miles    
Events Rain , Thunderstorm    
T = Trace of Precipitation, MM = Missing Value Source: NWS Daily Summary

Daily Weather History Graph

Daily Weather History Graph

Search for Another Location

Airport or City:

Trip Planner

Search our weather history database for the weather conditions in past years. The results will help you decide how hot, cold, wet, or windy it might be!

Date:

Astronomy

Aug. 26, 2014 Rise Set
Actual Time 6:43 AM CDT 7:55 PM CDT
Civil Twilight 6:16 AM CDT 8:22 PM CDT
Nautical Twilight 5:44 AM CDT 8:54 PM CDT
Astronomical Twilight 5:11 AM CDT 9:27 PM CDT
Moon 7:42 AM CDT (8/26) 8:19 PM CDT (8/26)
Length of Visible Light 14h 05m
Length of Day
13h 11m
New Moon, 1% of the Moon is Illuminated
Aug 26
New Moon
Sep 2
First Quarter
Sep 8
Full
Sep 15
Last Quarter
Sep 24
New

Hourly Weather History & Observations

Time (CDT) Temp. Heat Index Dew Point Humidity Pressure Visibility Wind Dir Wind Speed Gust Speed Precip Events Conditions
12:53 AM 81.0 °F 83.3 °F 66.9 °F 62% 29.99 in 10.0 mi SSE 6.9 mph - N/A   Clear
1:53 AM 79.0 °F - 66.0 °F 64% 29.99 in 10.0 mi SSE 8.1 mph - N/A   Clear
2:53 AM 79.0 °F - 66.0 °F 64% 29.99 in 10.0 mi SSE 6.9 mph - N/A   Clear
3:53 AM 75.2 °F - 66.2 °F 73% 30.04 in 10.0 mi SSE 6.9 mph - N/A   Clear
4:53 AM 75.9 °F - 66.0 °F 71% 30.01 in 10.0 mi South 5.8 mph - N/A   Clear
5:53 AM 73.9 °F - 66.9 °F 79% 30.03 in 10.0 mi Calm Calm - N/A   Clear
6:53 AM 73.9 °F - 66.9 °F 79% 30.07 in 10.0 mi Calm Calm - N/A   Clear
7:53 AM 75.9 °F - 68.0 °F 76% 30.08 in 10.0 mi Calm Calm - N/A   Clear
8:53 AM 81.0 °F 84.1 °F 69.1 °F 67% 30.07 in 10.0 mi South 3.5 mph - N/A   Clear
9:53 AM 84.2 °F 88.4 °F 69.8 °F 62% 30.12 in 10.0 mi Variable 3.5 mph - N/A   Clear
10:53 AM 89.1 °F 93.7 °F 69.1 °F 52% 30.09 in 10.0 mi Variable 3.5 mph - N/A   Clear
11:53 AM 93.0 °F 97.4 °F 68.0 °F 44% 30.09 in 10.0 mi Variable 4.6 mph - N/A   Clear
12:53 PM 93.9 °F 97.5 °F 66.9 °F 41% 30.07 in 10.0 mi Variable 4.6 mph - N/A   Clear
1:53 PM 98.1 °F 101.2 °F 64.9 °F 34% 30.05 in 10.0 mi Variable 5.8 mph - N/A   Clear
2:53 PM 98.1 °F 100.7 °F 64.0 °F 33% 30.02 in 10.0 mi Calm Calm - N/A   Mostly Cloudy
3:53 PM 98.1 °F 99.6 °F 63.0 °F 31% 30.00 in 10.0 mi Variable 5.8 mph - N/A   Scattered Clouds
4:53 PM 98.1 °F 99.6 °F 63.0 °F 31% 29.97 in 10.0 mi Calm Calm - N/A   Clear
5:53 PM 98.1 °F 99.1 °F 62.1 °F 30% 29.96 in 10.0 mi SW 3.5 mph - N/A Thunderstorm Partly Cloudy
6:28 PM 91.0 °F 91.9 °F 63.0 °F 39% 30.01 in 10.0 mi East 12.7 mph - N/A   Overcast
6:44 PM 84.0 °F 87.8 °F 69.1 °F 61% 30.02 in 6.0 mi East 11.5 mph - 0.02 in Rain , Thunderstorm Light Rain
6:53 PM 82.9 °F 86.5 °F 69.1 °F 63% 29.99 in 8.0 mi East 10.4 mph - 0.02 in Rain Light Rain
7:53 PM 82.0 °F 85.5 °F 69.1 °F 65% 30.01 in 10.0 mi NE 10.4 mph - 0.01 in Thunderstorm Partly Cloudy
8:11 PM 82.9 °F 85.4 °F 66.9 °F 58% 30.05 in 10.0 mi East 8.1 mph - N/A   Mostly Cloudy
8:53 PM 82.0 °F 84.9 °F 68.0 °F 62% 30.02 in 10.0 mi ENE 8.1 mph - N/A   Partly Cloudy
9:34 PM 79.0 °F - 68.0 °F 69% 30.08 in 10.0 mi NE 9.2 mph - N/A Thunderstorm Clear
9:53 PM 79.0 °F - 66.9 °F 66% 30.05 in 10.0 mi NNE 8.1 mph - N/A   Clear
10:53 PM 75.9 °F - 69.1 °F 79% 30.06 in 10.0 mi Calm Calm - N/A   Clear
11:53 PM 75.0 °F - 69.1 °F 82% 30.04 in 10.0 mi SE 3.5 mph - N/A   Clear